EHI
0 0 0 0 0 0 0 0 0 0 0 0 0 0 0 0 0 0 0 1 1 1 0 1 2 2 3 2 1 0 0 0 0 1 2 3 3 3 3 2 1 0 0 0
0 0 0 0 0 0 0 0 0 0 0 0 0 0 0 0 0 0 0 0 0 0 0 0 1 1 2 2 1 0 0 0 0 1 3 3 3 3 3 3 2 1 0 0
0 0 0 0 0 0 0 0 0 0 0 0 0 0 0 0 0 0 0 0 0 0 0 0 0 0 1 1 1 0 0 0 1 2 3 3 3 3 3 3 3 1 0 0
0 0 0 0 0 0 0 0 0 0 0 0 0 0 0 0 0 0 0 0 0 0 0 0 0 0 0 0 0 0 0 0 1 3 3 3 3 3 3 3 3 2 1 0
0 0 0 0 0 0 0 0 0 0 0 0 0 0 0 0 0 0 0 0 0 0 0 0 0 0 0 0 0 0 0 1 2 3 3 3 3 3 3 3 3 3 2 1
0 0 0 0 0 0 0 0 0 0 0 0 0 0 0 0 0 0 0 0 0 0 0 0 0 0 0 0 0 0 0 1 2 3 3 3 3 3 3 3 3 3 2 1
0 0 0 0 0 0 0 0 0 0 0 0 0 0 0 0 0 0 0 0 0 0 0 0 0 0 0 0 0 0 1 2 3 3 3 3 3 3 3 3 2 2 1 0
0 0 0 0 0 0 0 0 0 0 0 0 0 0 0 0 0 0 0 0 0 0 0 0 0 0 0 0 0 0 1 2 3 3 3 3 3 3 2 1 1 1 0 0
0 0 0 0 0 0 0 0 0 0 0 0 0 0 0 0 0 0 0 0 0 0 0 0 0 0 0 0 0 0 1 3 5 4 3 3 3 2 1 0 0 0 0 0
0 0 0 0 0 0 0 0 0 0 0 0 0 0 0 0 0 0 0 0 0 0 0 0 0 0 0 0 0 0 1 3 5 5 3 3 3 3 2 1 1 1 0 0
0 0 0 0 0 0 0 0 0 0 0 0 0 0 0 0 0 0 0 0 0 0 0 0 0 0 0 0 0 0 0 1 3 4 3 3 3 3 2 2 2 1 0 0
0 0 0 0 0 0 0 0 0 0 0 0 0 0 0 0 0 0 0 0 0 0 0 0 0 0 0 0 0 0 0 0 1 3 3 3 3 1 1 2 1 1 0 0
0 0 0 0 0 0 0 0 0 0 0 0 0 0 0 0 0 0 0 0 0 0 0 0 0 0 0 0 0 0 0 0 1 2 3 3 3 1 0 0 0 0 0 0
0 0 0 0 0 0 0 0 0 0 0 0 0 0 0 0 0 0 0 0 0 0 0 0 0 0 0 0 0 0 0 0 1 2 3 3 3 2 0 0 0 0 0 0
0 0 0 0 0 0 0 0 0 0 0 0 0 0 0 0 0 0 0 0 0 0 0 0 0 0 0 0 0 0 0 0 0 1 2 3 2 1 0 0 0 0 0 0
0 0 0 0 0 0 0 0 0 0 0 0 0 0 0 0 0 0 0 0 0 0 0 0 0 0 0 0 0 0 0 0 0 0 1 2 1 0 0 0 0 0 0 0
0 0 0 0 0 0 0 0 0 0 0 0 0 0 0 0 0 0 0 0 0 0 0 0 0 0 0 0 0 0 0 0 0 0 0 0 0 0 0 0 0 0 0 0
0 0 0 0 0 0 0 0 0 0 0 0 0 0 0 0 0 0 0 0 0 0 0 0 0 0 0 0 0 0 0 0 0 0 0 0 0 0 0 0 0 0 0 0
0 0 0 0 0 0 0 0 0 0 0 0 0 0 0 0 0 0 0 0 0 0 0 0 0 0 0 0 0 0 0 0 0 0 0 0 0 0 0 0 0 0 0 0
0 0 0 0 0 0 0 0 0 0 0 0 0 0 0 0 0 0 0 0 0 0 0 0 0 0 0 0 0 0 0 0 0 0 0 0 0 0 0 0 0 0 0 0
0 0 0 0 0 0 0 0 0 0 0 0 0 0 0 0 0 0 0 0 0 0 0 0 0 0 0 0 0 0 0 0 0 0 0 0 0 0 0 0 0 0 0 0
0 0 0 0 0 0 0 0 0 0 0 0 0 0 0 0 0 0 0 0 0 0 0 0 0 0 0 0 0 0 0 0 0 0 0 0 0 0 0 0 0 0 0 0
0 0 0 0 0 0 0 0 0 0 0 0 0 0 0 0 0 0 0 0 0 0 0 0 0 0 0 0 0 0 0 0 0 0 0 0 0 0 0 0 0 0 0 0
0 0 0 0 0 0 0 0 0 0 0 0 0 0 0 0 0 0 0 0 0 0 0 0 0 0 0 0 0 0 0 0 0 0 0 0 0 0 0 0 0 0 0 0
0 0 0 0 0 0 0 0 0 0 0 0 0 0 0 0 0 0 0 0 0 0 0 0 0 0 0 0 0 0 0 0 0 0 0 0 0 0 0 0 0 0 0 0
0 0 0 0 0 0 0 0 0 0 0 0 0 0 0 0 0 0 0 0 0 0 0 0 0 0 0 0 0 0 0 0 0 0 0 0 0 0 0 0 0 0 0 0
0 0 0 0 0 0 0 0 0 0 0 0 0 0 0 0 0 0 0 0 0 0 0 0 0 0 0 0 0 0 0 0 0 0 0 0 0 0 0 0 0 0 0 0
Wind_Speed
10 8 8 8 8 8 10 9 8 6 5 2 1 3 3 4 5 5 5 4 4 3 3 3 4 4 3 4 4 4 3 3 2 2 2 2 2 2 1 0 0 0 1 1
10 10 11 11 10 10 10 10 9 8 6 2 1 2 3 4 4 3 3 3 3 3 2 2 2 3 3 3 3 4 3 3 3 2 2 2 2 2 1 1 1 0 0 0
8 7 9 11 9 10 8 6 6 6 3 1 1 1 2 3 3 3 3 3 3 2 2 1 2 1 2 3 3 3 3 2 2 2 2 2 2 2 2 2 1 1 1 0
6 7 10 3 1 2 3 3 3 2 0 1 2 2 3 3 2 3 3 3 2 2 2 1 2 2 2 2 2 2 2 2 2 2 2 2 2 2 2 2 1 2 1 1
5 7 8 4 3 2 2 3 2 2 1 2 2 1 1 3 3 3 3 3 2 2 1 1 1 2 2 1 2 2 2 2 2 2 2 2 3 3 2 2 1 1 1 1
6 7 7 1 4 2 1 2 2 2 2 2 1 1 1 4 4 4 3 3 3 2 1 1 1 2 1 1 1 2 1 1 2 2 3 3 2 2 1 1 2 1 1 1
8 8 5 2 3 3 3 1 3 2 2 2 1 1 2 4 3 3 2 3 2 2 1 1 1 1 1 2 2 1 1 1 1 2 3 2 2 1 1 1 1 1 1 1
7 8 5 3 3 2 2 4 3 3 2 2 3 4 4 3 2 2 2 2 2 2 1 1 1 1 1 1 0 0 1 1 1 1 2 1 1 1 1 1 1 1 1 1
3 2 2 3 1 2 3 2 2 2 3 2 2 2 2 2 2 1 1 1 1 1 1 1 1 1 1 1 0 1 1 1 1 1 1 1 2 1 1 1 1 1 1 1
4 3 1 1 2 3 2 2 3 2 2 1 0 1 1 1 1 0 0 0 0 1 1 1 1 1 0 0 0 1 1 1 1 1 1 1 1 1 1 1 1 1 1 1
7 4 3 1 1 1 2 2 2 2 1 0 1 0 0 0 0 0 1 1 0 1 1 1 1 1 1 0 1 1 1 1 1 1 1 2 1 1 1 1 2 2 2 2
5 4 3 2 1 1 1 1 1 1 1 1 1 1 0 0 0 0 1 1 1 1 1 1 1 1 1 1 1 2 1 1 1 1 1 2 2 1 1 1 1 1 1 1
5 4 3 2 2 1 1 1 1 1 0 0 0 0 1 1 0 1 1 2 2 2 1 1 1 1 1 1 2 2 2 2 1 2 2 2 2 2 1 0 1 1 2 2
3 3 3 3 2 1 1 1 0 0 0 1 0 0 1 1 1 1 1 1 1 1 1 1 1 1 1 1 2 2 2 2 2 2 2 2 2 2 2 2 2 1 1 3
4 3 4 2 1 1 1 1 1 1 1 1 0 0 1 1 1 1 1 1 1 1 1 1 2 1 1 1 2 2 2 2 2 1 2 2 2 2 2 2 1 1 1 1
4 4 4 4 4 3 2 2 2 2 1 1 1 1 1 1 1 1 1 1 2 2 2 2 2 1 1 1 2 1 1 3 2 2 2 2 2 2 2 2 2 2 2 2
5 4 4 5 5 4 3 3 3 2 2 1 1 1 1 1 1 1 2 2 1 2 2 1 2 1 1 1 2 1 1 2 3 2 2 2 2 2 2 2 2 2 2 2
5 5 4 4 4 3 3 3 3 2 2 1 1 1 2 2 2 2 2 1 1 2 1 1 1 1 1 1 1 1 2 2 2 2 2 2 2 2 2 2 2 2 1 2
4 4 3 3 3 3 3 3 2 2 1 1 2 2 2 2 1 1 1 1 2 2 2 1 1 1 2 1 1 1 2 2 2 2 2 3 2 2 2 2 2 2 2 2
3 3 3 3 3 3 2 2 2 2 2 2 2 1 2 2 2 1 1 1 1 1 1 0 1 1 1 1 1 1 1 2 2 2 2 3 3 2 2 2 2 2 2 2
2 2 2 2 2 2 2 2 2 2 2 2 2 2 2 2 2 1 1 1 1 1 0 0 0 0 0 1 1 1 1 2 2 2 2 2 2 2 2 2 2 2 2 2
2 2 3 3 3 3 2 2 2 2 2 3 3 2 2 2 1 1 1 1 1 1 0 1 0 0 1 1 1 1 2 2 2 1 2 2 2 2 2 2 2 2 2 2
2 2 2 2 3 2 2 2 2 2 3 3 3 2 2 2 1 1 1 1 1 1 1 1 1 0 1 0 1 1 2 2 2 2 1 1 2 2 2 2 2 2 2 2
1 1 2 1 1 1 2 1 1 1 1 2 2 2 2 1 1 1 1 1 1 1 1 1 1 1 1 1 1 1 1 1 1 1 1 1 1 1 1 1 1 1 2 2
1 2 2 1 1 1 1 0 0 1 1 1 1 1 1 1 1 1 1 1 2 1 1 1 1 1 0 0 1 1 1 1 1 1 1 1 1 1 1 1 1 1 1 1
1 1 1 1 1 0 0 1 1 1 1 1 1 0 0 1 1 1 1 1 1 1 0 0 1 1 0 0 0 1 1 1 1 1 1 1 1 1 1 1 1 1 1 1
0 0 0 0 0 0 0 1 1 1 1 1 1 0 1 1 1 1 1 1 1 1 0 0 0 1 0 0 0 1 1 1 1 1 1 1 1 1 1 1 1 1 1 1
Wind_Direction
274 282 285 266 255 247 248 251 259 265 277 295 102 124 131 132 133 136 145 147 145 152 155 159 160 170 170 161 159 165 170 176 178 180 158 144 140 145 147 144 294 278 341 334
269 264 268 267 256 247 246 252 257 264 272 312 352 82 120 129 132 141 143 140 138 144 148 159 161 176 165 161 163 170 180 181 169 167 156 152 154 154 165 193 248 276 236 334
267 266 270 259 251 241 240 240 252 256 260 332 319 56 63 116 137 147 142 139 144 157 157 166 173 175 167 166 163 169 175 172 158 155 157 161 167 168 189 199 213 262 276 238
265 261 251 246 128 201 231 235 241 257 297 22 39 57 74 95 124 135 137 138 142 147 142 155 162 157 136 152 163 169 174 170 162 163 168 172 182 197 198 195 207 208 229 231
253 258 261 228 191 188 219 237 218 196 132 81 62 52 92 80 85 99 118 125 126 123 120 151 158 141 138 164 173 180 177 166 168 169 181 191 204 208 198 191 211 214 201 216
253 256 257 197 124 132 213 244 132 149 148 134 125 258 133 86 77 79 100 115 118 123 140 146 130 128 157 186 192 201 180 178 185 181 187 200 202 208 207 186 205 219 219 216
249 254 259 98 119 135 213 144 96 100 105 127 154 54 91 97 84 76 87 109 118 136 141 135 135 149 203 215 214 194 151 171 200 191 194 194 195 188 189 202 215 227 229 218
234 242 244 131 160 190 82 79 74 62 66 80 75 77 83 91 91 92 85 111 131 139 137 137 158 188 225 238 226 116 164 187 209 194 187 175 170 194 191 188 208 232 238 250
233 228 105 128 105 61 58 66 64 59 57 66 82 90 89 92 93 93 87 117 138 151 151 159 169 181 246 264 154 178 207 197 189 173 156 156 167 185 203 204 199 222 223 246
270 262 228 137 77 68 49 32 53 62 57 49 52 99 101 102 89 53 292 179 186 175 186 209 176 173 229 327 233 208 216 205 178 167 146 128 140 171 190 215 214 209 222 236
265 270 292 296 9 44 53 43 39 48 58 15 324 264 136 174 139 317 308 309 262 226 220 238 217 205 177 199 242 234 219 208 178 166 165 163 161 171 186 209 204 207 211 209
260 281 292 311 2 21 22 3 14 52 61 25 352 320 314 288 115 287 278 277 273 259 243 237 219 223 213 201 228 233 216 209 191 182 184 172 162 143 127 182 175 187 175 182
290 319 317 321 330 307 281 309 333 342 133 247 315 310 280 267 248 271 266 256 257 256 242 231 218 223 254 245 235 236 218 205 192 190 192 185 179 181 194 184 166 184 186 194
328 317 284 280 278 269 244 241 301 323 269 218 179 28 310 307 293 279 280 280 274 268 250 244 239 232 246 277 257 238 221 215 206 196 187 187 187 195 194 188 195 225 217 204
281 280 277 288 273 249 224 202 201 228 247 249 192 233 271 284 278 285 303 308 284 266 257 247 245 231 203 249 266 253 225 202 191 184 183 186 184 191 196 199 197 194 189 213
265 256 254 249 237 222 213 222 231 236 240 257 270 276 287 302 309 306 298 282 253 252 252 251 257 250 237 240 253 257 235 216 204 191 185 184 187 191 190 196 208 211 207 198
240 240 242 238 229 222 216 218 231 243 244 248 256 264 287 295 284 279 287 288 282 275 267 262 272 263 260 246 234 227 218 209 205 204 193 190 195 201 198 204 214 223 221 198
245 241 239 238 229 225 224 222 226 232 240 255 260 248 246 251 253 269 287 312 313 299 300 307 310 296 271 253 233 218 218 209 198 201 207 207 205 206 205 210 212 224 229 202
243 232 231 232 226 227 228 225 222 221 226 228 234 244 250 257 258 269 259 257 271 281 293 333 294 263 262 229 233 225 216 215 204 205 210 219 220 218 215 214 218 217 212 199
244 228 224 226 224 226 226 221 222 217 224 220 226 241 252 265 262 247 236 241 256 275 283 285 249 257 252 199 223 241 235 232 214 203 213 216 219 224 221 219 211 208 210 209
237 223 213 221 230 231 228 223 226 224 224 219 226 238 247 257 259 243 234 255 281 339 2 245 263 256 242 233 233 251 251 246 236 222 222 224 226 225 224 226 224 220 219 218
250 234 214 212 218 228 224 219 225 228 232 232 234 234 239 246 251 255 254 247 212 127 157 235 226 255 306 298 237 239 245 254 252 241 238 234 232 233 235 233 229 227 223 221
251 246 227 218 221 226 226 220 219 218 226 233 230 228 233 233 231 227 252 249 161 175 197 202 204 257 310 288 259 261 253 246 248 244 246 251 248 244 241 235 229 223 219 221
275 280 269 249 225 216 228 228 224 235 246 257 243 235 224 215 236 246 233 171 163 178 159 159 193 253 268 252 266 278 271 256 248 251 258 265 265 263 260 252 241 224 218 222
261 257 263 256 232 219 215 194 227 246 244 265 266 252 224 183 183 174 134 155 164 148 154 182 221 269 263 265 285 291 296 300 309 311 295 289 286 286 285 279 267 246 236 232
259 277 282 281 297 322 235 202 212 240 242 238 257 247 136 117 119 123 126 121 117 138 131 187 192 204 206 58 6 350 352 336 333 341 329 315 307 302 293 290 297 288 274 271
254 278 254 258 270 249 247 245 244 250 241 220 246 239 130 119 120 130 131 135 140 152 159 118 124 133 132 74 15 7 352 339 333 316 306 314 317 309 302 291 285 287 287 284